When you browse on this site, cookies collect data to enhance your experience and personalize the content and advertising you see.
Visit our Privacy Policy to learn more. By continuing to use the site, you agree to this use of cookies and data.
  • In Denmark
  • List of Countries
  • For 7 days
  • Water Temperature
  • Satellite Maps
  • Weather Map
  • Weather Widgets
  • user-avatar
    Login

    Hourly Weather Seyðisfjörður

    Today, 19 January, Saturday

    Time Temperature Precipitation Wind Pressure Humidity
    00:00 -4°C° 0.1 mm 3 mps 753 mmHg 94%
    01:00 -4°C° 0.1 mm 3 mps 752 mmHg 95%
    02:00 -4°C° 0.1 mm 3 mps 752 mmHg 95%
    03:00 -4°C° 0 mm 4 mps 752 mmHg 95%
    04:00 -3°C° 0 mm 4 mps 751 mmHg 95%
    05:00 -3°C° 0 mm 4 mps 751 mmHg 96%
    06:00 -2°C° 0.1 mm 4 mps 751 mmHg 96%
    07:00 -2°C° 0.1 mm 4 mps 750 mmHg 96%
    08:00 -1°C° 0.1 mm 4 mps 750 mmHg 96%
    09:00 -1°C° 0.1 mm 4 mps 750 mmHg 96%
    10:00 0°C° 0.1 mm 5 mps 749 mmHg 95%
    11:00 +1°C° 0 mm 6 mps 749 mmHg 94%
    12:00 +1°C° 0 mm 6 mps 748 mmHg 92%
    13:00 0°C° 0 mm 7 mps 748 mmHg 90%
    14:00 0°C° 0 mm 7 mps 747 mmHg 89%
    15:00 0°C° 0 mm 8 mps 747 mmHg 89%
    16:00 0°C° 0 mm 8 mps 746 mmHg 88%
    17:00 0°C° 0 mm 9 mps 745 mmHg 88%
    18:00 0°C° 0.2 mm 9 mps 745 mmHg 89%
    19:00 0°C° 0.2 mm 9 mps 744 mmHg 90%
    20:00 0°C° 0.2 mm 10 mps 744 mmHg 91%
    21:00 0°C° 1 mm 9 mps 743 mmHg 93%
    22:00 0°C° 1 mm 8 mps 743 mmHg 94%
    23:00 0°C° 1 mm 7 mps 743 mmHg 95%

    Tomorrow, 20 January, Sunday

    Time Temperature Precipitation Wind Pressure Humidity
    00:00 -2°C° 0.3 mm 6 mps 743 mmHg 89%
    01:00 -4°C° 0.3 mm 6 mps 743 mmHg 83%
    02:00 -6°C° 0.3 mm 6 mps 742 mmHg 77%
    03:00 -8°C° 0 mm 6 mps 743 mmHg 76%
    04:00 -7°C° 0 mm 5 mps 744 mmHg 75%
    05:00 -8°C° 0 mm 5 mps 744 mmHg 74%
    06:00 -8°C° 0 mm 5 mps 745 mmHg 74%
    07:00 -8°C° 0 mm 5 mps 746 mmHg 73%
    08:00 -7°C° 0 mm 5 mps 746 mmHg 73%
    09:00 -8°C° 0 mm 5 mps 747 mmHg 71%
    10:00 -8°C° 0 mm 5 mps 747 mmHg 70%
    11:00 -10°C° 0 mm 5 mps 747 mmHg 68%
    12:00 -10°C° 0 mm 5 mps 747 mmHg 68%
    13:00 -10°C° 0 mm 5 mps 747 mmHg 68%
    14:00 -10°C° 0 mm 5 mps 748 mmHg 68%
    15:00 -11°C° 0 mm 5 mps 748 mmHg 67%
    16:00 -11°C° 0 mm 5 mps 748 mmHg 67%
    17:00 -10°C° 0 mm 4 mps 748 mmHg 66%
    18:00 -9°C° 0 mm 4 mps 747 mmHg 69%
    19:00 -8°C° 0 mm 4 mps 746 mmHg 71%
    20:00 -7°C° 0 mm 4 mps 745 mmHg 74%
    21:00 -6°C° 0.2 mm 8 mps 743 mmHg 79%
    22:00 -3°C° 0.2 mm 11 mps 741 mmHg 84%
    23:00 -1°C° 0.2 mm 15 mps 739 mmHg 89%

    Day after tomorrow, 21 January, Monday

    Time Temperature Precipitation Wind Pressure Humidity
    00:00 -1°C° 1.5 mm 12 mps 738 mmHg 91%
    01:00 +1°C° 1.5 mm 10 mps 737 mmHg 94%
    02:00 +2°C° 1.5 mm 7 mps 736 mmHg 97%
    03:00 +2°C° 0.3 mm 6 mps 735 mmHg 98%
    04:00 +2°C° 0.3 mm 5 mps 733 mmHg 98%
    05:00 +1°C° 0.3 mm 5 mps 732 mmHg 98%
    06:00 +1°C° 0 mm 4 mps 732 mmHg 97%
    07:00 0°C° 0 mm 4 mps 731 mmHg 97%
    08:00 -1°C° 0 mm 4 mps 730 mmHg 97%
    09:00 0°C° 0.1 mm 5 mps 729 mmHg 96%
    10:00 0°C° 0.1 mm 5 mps 729 mmHg 95%
    11:00 -1°C° 0.1 mm 6 mps 729 mmHg 95%
    12:00 -1°C° 0.1 mm 5 mps 729 mmHg 91%
    13:00 -1°C° 0.1 mm 4 mps 729 mmHg 88%
    14:00 -1°C° 0.1 mm 3 mps 729 mmHg 85%
    15:00 -4°C° 0 mm 4 mps 729 mmHg 81%
    16:00 -5°C° 0 mm 4 mps 730 mmHg 78%
    17:00 -8°C° 0 mm 4 mps 730 mmHg 74%
    18:00 -7°C° 0 mm 3 mps 730 mmHg 72%
    19:00 -7°C° 0 mm 2 mps 731 mmHg 69%
    20:00 -6°C° 0 mm 1 mps 731 mmHg 66%
    21:00 -6°C° 0 mm 2 mps 731 mmHg 70%
    22:00 -6°C° 0 mm 3 mps 732 mmHg 74%
    23:00 -5°C° 0 mm 3 mps 732 mmHg 78%

    22 January, Tuesday

    Time Temperature Precipitation Wind Pressure Humidity
    00:00 -5°C° 0.1 mm 3 mps 733 mmHg 79%
    01:00 -4°C° 0.1 mm 4 mps 733 mmHg 81%
    02:00 -4°C° 0.1 mm 4 mps 733 mmHg 82%
    03:00 -5°C° 0.2 mm 5 mps 734 mmHg 84%
    04:00 -4°C° 0.2 mm 5 mps 734 mmHg 86%
    05:00 -4°C° 0.2 mm 6 mps 735 mmHg 88%
    06:00 -5°C° 0 mm 5 mps 736 mmHg 89%
    07:00 -6°C° 0 mm 5 mps 737 mmHg 90%
    08:00 -7°C° 0 mm 4 mps 737 mmHg 90%
    09:00 -7°C° 0 mm 4 mps 738 mmHg 88%
    10:00 -8°C° 0 mm 4 mps 739 mmHg 85%
    11:00 -9°C° 0 mm 4 mps 740 mmHg 82%
    12:00 -9°C° 0 mm 4 mps 741 mmHg 79%
    13:00 -10°C° 0 mm 4 mps 741 mmHg 76%
    14:00 -9°C° 0 mm 3 mps 742 mmHg 73%
    15:00 -9°C° 0 mm 3 mps 743 mmHg 74%
    16:00 -9°C° 0 mm 3 mps 743 mmHg 75%
    17:00 -9°C° 0 mm 3 mps 744 mmHg 76%
    18:00 -9°C° 0 mm 3 mps 745 mmHg 76%
    19:00 -9°C° 0 mm 2 mps 745 mmHg 77%
    20:00 -9°C° 0 mm 2 mps 746 mmHg 78%
    21:00 -9°C° 0 mm 2 mps 747 mmHg 78%
    22:00 -9°C° 0 mm 2 mps 747 mmHg 78%
    23:00 -9°C° 0 mm 2 mps 747 mmHg 78%

    23 January, Wednesday

    Time Temperature Precipitation Wind Pressure Humidity
    00:00 -10°C° 0 mm 2 mps 748 mmHg 78%
    01:00 -10°C° 0 mm 2 mps 748 mmHg 78%
    02:00 -10°C° 0 mm 2 mps 748 mmHg 78%
    03:00 -10°C° 0 mm 2 mps 748 mmHg 77%
    04:00 -10°C° 0 mm 2 mps 748 mmHg 77%
    05:00 -12°C° 0 mm 2 mps 749 mmHg 77%
    06:00 -12°C° 0 mm 2 mps 749 mmHg 76%
    07:00 -13°C° 0 mm 3 mps 749 mmHg 75%
    08:00 -13°C° 0 mm 3 mps 750 mmHg 74%
    09:00 -13°C° 0 mm 3 mps 750 mmHg 73%
    10:00 -13°C° 0 mm 3 mps 750 mmHg 71%
    11:00 -12°C° 0 mm 3 mps 751 mmHg 69%
    12:00 -10°C° 0 mm 2 mps 751 mmHg 68%
    13:00 -10°C° 0 mm 2 mps 751 mmHg 66%
    14:00 -10°C° 0 mm 2 mps 752 mmHg 64%
    15:00 -10°C° 0 mm 2 mps 752 mmHg 63%
    16:00 -10°C° 0 mm 2 mps 752 mmHg 62%
    17:00 -10°C° 0 mm 2 mps 752 mmHg 61%
    18:00 -10°C° 0 mm 2 mps 752 mmHg 65%
    19:00 -9°C° 0 mm 2 mps 752 mmHg 70%
    20:00 -9°C° 0 mm 2 mps 753 mmHg 74%
    21:00 -8°C° 0 mm 2 mps 752 mmHg 78%
    22:00 -8°C° 0 mm 2 mps 752 mmHg 82%
    23:00 -8°C° 0 mm 3 mps 752 mmHg 85%

    24 January, Thursday

    Time Temperature Precipitation Wind Pressure Humidity
    00:00 -7°C° 0 mm 3 mps 752 mmHg 87%
    01:00 -6°C° 0 mm 3 mps 751 mmHg 89%
    02:00 -5°C° 0 mm 3 mps 751 mmHg 91%
    03:00 -4°C° 0.2 mm 4 mps 750 mmHg 92%
    04:00 -3°C° 0.2 mm 4 mps 749 mmHg 93%
    05:00 -4°C° 0.2 mm 5 mps 748 mmHg 94%
    06:00 -2°C° 0.7 mm 5 mps 747 mmHg 94%
    07:00 -2°C° 0.7 mm 6 mps 747 mmHg 95%
    08:00 -2°C° 0.7 mm 6 mps 746 mmHg 95%
    09:00 -1°C° 0.1 mm 6 mps 746 mmHg 95%
    10:00 -1°C° 0.1 mm 6 mps 745 mmHg 95%
    11:00 +1°C° 0.1 mm 6 mps 745 mmHg 95%
    12:00 +1°C° 0 mm 5 mps 745 mmHg 96%
    13:00 +1°C° 0 mm 5 mps 745 mmHg 96%
    14:00 +3°C° 0 mm 4 mps 745 mmHg 96%
    15:00 +3°C° 0 mm 4 mps 745 mmHg 96%
    16:00 +3°C° 0 mm 3 mps 745 mmHg 95%
    17:00 +3°C° 0 mm 3 mps 745 mmHg 95%
    18:00 +3°C° 0.3 mm 3 mps 745 mmHg 96%
    19:00 +4°C° 0.3 mm 3 mps 745 mmHg 96%
    20:00 +5°C° 0.3 mm 2 mps 745 mmHg 97%
    21:00 +4°C° 0.1 mm 3 mps 745 mmHg 95%
    22:00 +4°C° 0.1 mm 3 mps 744 mmHg 92%
    23:00 +4°C° 0.1 mm 4 mps 744 mmHg 90%
    Show more